Simultaneous Nadir Overpasses (SNOs) Predictions

Prediction of SNOs between NOAA-19 and TERRA Satellite Orbit:

Table of predicted SNOs for the next 14.0 days since TLE Epoch: 10/5/2019
Index Date (NOAA-19) Time (NOAA-19) Lat,Lon (NOAA-19) SZA (NOAA-19 ) Date (TERRA) Time (TERRA) Lat,Lon (TERRA) SZA (TERRA ) Distance(km) Time Diff (sec)
1 10/05/2019 22:39:20 78.83,-136.00 84.87 10/05/2019 22:39:44 78.82,-136.00 84.86 2.04 24
2 10/05/2019 23:30:20 -78.80, 31.49 95.13 10/05/2019 23:29:12 -78.78, 31.41 95.19 3.28 68
3 10/08/2019 04:12:44 -78.85, -39.40 94.26 10/08/2019 04:13:28 -78.83, -39.36 94.26 2.72 44
4 10/08/2019 05:03:42 78.81, 128.14 85.75 10/08/2019 05:02:54 78.83, 128.27 85.76 3.19 48
5 10/10/2019 09:46:05 78.85, 57.34 86.61 10/10/2019 09:47:11 78.83, 57.24 86.61 3.04 66
6 10/10/2019 10:37:06 -78.81,-135.12 93.39 10/10/2019 10:36:38 -78.84,-135.09 93.37 3.15 28
7 10/12/2019 16:10:27 78.84, -38.54 87.48 10/12/2019 16:10:21 78.84, -38.52 87.48 0.62 6
8 10/14/2019 21:43:52 -78.83, 58.21 91.68 10/14/2019 21:44:05 -78.85, 58.11 91.66 3.14 13
9 10/14/2019 22:34:43 78.61,-132.93 88.29 10/14/2019 22:33:35 78.68,-135.22 88.11 50.70 68
10 10/17/2019 03:17:12 78.86, 154.77 89.17 10/17/2019 03:17:47 78.88, 154.85 89.21 3.08 35




NCC Satellite Simultaneous Nadir Overpasses (SNOs) Prediction Service
